STARLINK-32162

Last updated on Fri Sep 20 2024 00:02:03 GMT+0000 (Coordinated Universal Time)

1 60597U 24150Q 24263.44190902 .00008969 00000+0 23389-3 0 9994 2 60597 53.1585 280.3823 0001440 101.1881 258.9286 15.39626099 5905
UTC large
Height (km)
Speed (km/s)
/
Latitude / Longitude
Inclination (degrees)
Orbital Period (minutes)
Azimuth
Elevation
Range (km)
Doppler Factor

Next 0 passes for location: London (51.5072 / 0.1276)

Sorry there are no passes over London.